Regional Weather Roundup
Issued by NWS

Home | Current Version | Previous Version | Text Only | Print | Product List | Glossary On
Versions: 1 2 3 4 5 6 7 8 9 10 11 12 13 14 15 16 17 18 19 20 21 22 23 24 25 26 27 28 29 30 31 32 33 34 35 36 37 38 39 40 41 42 43 44 45 46 47 48 49 50
000
ASUS45 KSLC 012110
RWRUT

UTAH REGIONAL WEATHER ROUNDUP
NATIONAL WEATHER SERVICE SALT LAKE CITY UT
200 PM MST SUN MAR 01 2015

UTZ001>011-023>025-012200-

NORTHERN UTAH

CITY           SKY/WX    TMP DP  RH WIND       PRES   REMARKS
BRIGHAM CITY   CLOUDY    45  20  37 SW7       30.06F
HILL AFB       CLOUDY    44  23  43 VRB5      30.04F
LOGAN          MOSUNNY   44  19  36 E3        30.06F
OGDEN          CLOUDY    46  24  42 VRB5      30.04F
PROVO AIRPORT  PTSUNNY  N/A N/A N/A S3        30.05F
SALT LAKE CITY PTSUNNY   44  28  53 VRB3      30.05F
VERNAL         CLOUDY    39  24  55 CALM      30.09F
WENDOVER       SUNNY     45  18  33 SE8       30.06F
HEBER CITY     MOSUNNY   39  28  65 CALM      30.03F
WEST JORDAN    PTSUNNY   43  32  65 S5        30.05F

$$

UTZ012>022-026-027-012200-

SOUTHERN/CENTRAL UTAH

CITY           SKY/WX    TMP DP  RH WIND       PRES   REMARKS
BLANDING       CLOUDY    34  33  99 NE6       30.13F WCI  29
BRYCE CANYON   LGT SNOW  29  26  89 SE10      30.01F FOG     WCI  20
CEDAR CITY     PTSUNNY   36  29  75 S3        29.99F
DELTA          MOSUNNY   41  32  68 CALM      30.02F
HANKSVILLE     CLOUDY    41  34  75 CALM      30.09F
MILFORD        PTSUNNY   42  31  64 N14       30.00F
MOAB/CYNLANDS  CLOUDY    45  32  60 VRB3      30.05F
PRICE          MOSUNNY   41  24  51 SE9       30.03F
ST GEORGE      MOCLDY    50  36  57 CALM      30.00F
KANAB          CLOUDY    36  36 100 NE9       30.07S WCI  29

$$

REGIONAL REPORTS     COLORADO/ARIZONA

CITY           SKY/WX    TMP DP  RH WIND       PRES   REMARKS
CRAIG, CO      PTSUNNY   29  21  72 SW3       30.11F
GRAND JUNCTION CLOUDY    44  31  60 VRB5      30.07F
RIFLE          CLOUDY    43  22  43 CALM      30.06F
MONTROSE       CLOUDY    39  30  70 NW7       30.07F WCI  34
CORTEZ         LGT RAIN  38  35  89 CALM      30.06F
PAGE, AZ       LGT RAIN  40  35  83 W3        30.05F
GRAND CANYON   SNOW      33  32  96 CALM      30.00F VSB 1/4
KINGMAN        LGT RAIN  46  40  79 SE6       29.97S
FLAGSTAFF      LGT RAIN  33  31  92 NE5       30.01F FOG     WCI  29

$$

REGIONAL REPORTS    NEVADA/IDAHO/WYOMING

CITY           SKY/WX    TMP DP  RH WIND       PRES   REMARKS
LAS VEGAS, NV  CLOUDY    56  33  42 E5        29.93F
ELY            MOSUNNY   39  30  70 NE10      29.99F WCI  32
ELKO           SUNNY     45  20  36 CALM      30.00F
POCATELLO, ID  SUNNY     40  10  29 CALM      30.10F
BURLEY         SUNNY     42   2  18 NE12      30.09F
EVANSTON, WY   MOSUNNY   27  18  69 E9        30.05F WCI  18
ROCK SPRINGS   SUNNY     29  14  53 S9        30.09F WCI  20
KEMMERER       SUNNY     32  14  47 SE6       30.07F WCI  26

$$


USA.gov is the U.S. government's official web portal to all federal, state and local government web resources and services.